Valentine, NE

3:46 PM CST on February 06, 2016 (GMT -0600)
Miller Field

Weather History for KVTN - February, 2014

Change the Weather History Date:

Monday, February 3, 2014

  Actual Average Record
Temperature  
Mean Temperature 16 °F 25 °F  
Max Temperature 31 °F 38 °F 73 °F (1962)
Min Temperature 1 °F 12 °F -28 °F (1996)
Degree Days  
Heating Degree Days 49 40  
Month to date heating degree days 151 120  
Since 1 July heating degree days 4351 4298  
Cooling Degree Days 0 0  
Month to date cooling degree days 0 0  
Year to date cooling degree days 0 0  
Moisture  
Dew Point 6 °F    
Average Humidity 65    
Maximum Humidity 87    
Minimum Humidity 43    
Precipitation  
Precipitation T in 0.02 in 0.48 in (1960)
Month to date precipitation T 0.04  
Year to date precipitation 0.04 0.30  
Snow  
Snow T in 0.20 in 4.00 in (1997)
Month to date snowfall T 0.5  
Since 1 July snowfall 19.5 17.0  
Snow Depth T in    
Sea Level Pressure  
Sea Level Pressure 30.19 in    
Wind  
Wind Speed 9 mph (NE)    
Max Wind Speed 21 mph    
Max Gust Speed 25 mph    
Visibility 8 miles    
Events Snow    
T = Trace of Precipitation, MM = Missing Value Source: NWS Daily Summary

Daily Weather History Graph

Daily Weather History Graph

Search for Another Location

Airport or City:

Trip Planner

Search our weather history database for the weather conditions in past years. The results will help you decide how hot, cold, wet, or windy it might be!

Date:

Astronomy

Feb. 03, 2014 Rise Set
Actual Time 7:54 AM CST 5:57 PM CST
Civil Twilight 7:24 AM CST 6:27 PM CST
Nautical Twilight 6:51 AM CST 7:01 PM CST
Astronomical Twilight 6:17 AM CST 7:34 PM CST
Moon 9:50 AM CST (2/3) 10:58 PM CST (2/3)
Length of Visible Light 11h 03m
Length of Day
10h 03m
Waxing Crescent, 20% of the Moon is Illuminated
Feb 3
Waxing Crescent
Feb 6
First Quarter
Feb 14
Full
Feb 22
Last Quarter
Mar 1
New

Hourly Weather History & Observations

Time (CST) Temp. Windchill Dew Point Humidity Pressure Visibility Wind Dir Wind Speed Gust Speed Precip Events Conditions
12:52 AM 7.0 °F -1.7 °F -0.0 °F 73% 30.21 in 10.0 mi NW 4.6 mph - N/A   Clear
1:52 AM 5.0 °F -2.1 °F -0.9 °F 76% 30.19 in 10.0 mi NNW 3.5 mph - N/A   Clear
2:52 AM 1.9 °F -5.6 °F -2.0 °F 83% 30.20 in 10.0 mi NW 3.5 mph - N/A   Clear
3:52 AM 1.0 °F -8.7 °F -2.9 °F 83% 30.21 in 10.0 mi WSW 4.6 mph - N/A   Clear
4:52 AM 3.0 °F - -0.9 °F 84% 30.19 in 10.0 mi Calm Calm - N/A   Clear
5:52 AM 3.9 °F - -2.0 °F 76% 30.19 in 10.0 mi Calm Calm - N/A   Clear
6:52 AM 3.9 °F - -2.0 °F 76% 30.19 in 10.0 mi Calm Calm - N/A   Clear
7:52 AM 5.0 °F - -0.0 °F 80% 30.20 in 10.0 mi Calm Calm - N/A   Clear
8:52 AM 9.0 °F 0.6 °F 3.0 °F 77% 30.21 in 10.0 mi NNE 4.6 mph - N/A   Clear
9:52 AM 12.9 °F -0.2 °F 7.0 °F 77% 30.21 in 10.0 mi ENE 10.4 mph - N/A   Clear
10:52 AM 19.0 °F 7.5 °F 8.1 °F 62% 30.20 in 10.0 mi East 10.4 mph - N/A   Clear
11:52 AM 21.9 °F 12.5 °F 9.0 °F 58% 30.18 in 10.0 mi East 8.1 mph - N/A   Scattered Clouds
12:52 PM 27.0 °F 16.1 °F 10.9 °F 51% 30.13 in 10.0 mi ESE 12.7 mph - N/A   Mostly Cloudy
1:52 PM 30.9 °F 21.2 °F 10.9 °F 43% 30.11 in 10.0 mi East 12.7 mph - N/A   Overcast
2:52 PM 28.9 °F 18.2 °F 10.9 °F 47% 30.11 in 10.0 mi East 13.8 mph - N/A   Overcast
3:52 PM 30.0 °F 20.5 °F 12.0 °F 47% 30.11 in 10.0 mi East 11.5 mph - N/A   Overcast
4:52 PM 28.9 °F 17.7 °F 10.9 °F 47% 30.12 in 10.0 mi ENE 15.0 mph - N/A   Overcast
5:52 PM 25.0 °F 13.6 °F 10.0 °F 53% 30.14 in 10.0 mi NE 12.7 mph - N/A   Overcast
6:52 PM 23.0 °F 9.6 °F 9.0 °F 55% 30.19 in 10.0 mi ENE 16.1 mph - N/A   Overcast
7:52 PM 19.0 °F 4.0 °F 8.1 °F 62% 30.23 in 10.0 mi NE 17.3 mph - N/A   Overcast
8:52 PM 16.0 °F -0.4 °F 8.1 °F 71% 30.26 in 7.0 mi NE 18.4 mph 25.3 mph N/A   Overcast
9:49 PM 14.0 °F -0.2 °F 8.6 °F 79% 30.14 in 5.0 mi NE 12.7 mph - N/A   Haze
9:52 PM 14.0 °F -0.2 °F 9.0 °F 80% 30.29 in 5.0 mi NE 12.7 mph - N/A   Haze
10:24 PM 12.2 °F -2.5 °F 8.6 °F 85% 30.16 in 2.0 mi NNE 12.7 mph 20.7 mph 0.00 in Snow Light Snow
10:45 PM 12.2 °F -4.8 °F 6.8 °F 79% 30.16 in 3.0 mi NE 17.3 mph - 0.00 in Snow Light Snow
10:52 PM 12.9 °F -2.8 °F 7.0 °F 77% 30.30 in 3.0 mi NE 15.0 mph - 0.00 in Snow Light Snow
11:52 PM 12.0 °F -3.4 °F 7.0 °F 80% 30.31 in 4.0 mi NNE 13.8 mph - 0.00 in   Haze